Weather History for Waukesha, WI

Change the Weather History Date:

Saturday, February 8, 2014

  Actual Average Record
Temperature  
Mean Temperature 6 °F -  
Max Temperature 12 °F 27 °F 51 °F (1987)
Min Temperature 0 °F 11 °F -16 °F (1951)
Degree Days  
Heating Degree Days 59    
Moisture  
Dew Point 2 °F    
Average Humidity 83    
Maximum Humidity 92    
Minimum Humidity 72    
Precipitation  
Precipitation 0.00 in - - ()
Sea Level Pressure  
Sea Level Pressure 30.18 in    
Wind  
Wind Speed 3 mph (SW)    
Max Wind Speed 7 mph    
Max Gust Speed -    
Visibility 7 miles    
Events Snow    
Averages and records for this station are not official NWS values.
T = Trace of Precipitation, MM = Missing Value Source: NWS Daily Summary

Daily Weather History Graph

Daily Weather History Graph

Search for Another Location

Airport:

Trip Planner

Search our weather history database for the weather conditions in past years. The results will help you decide how hot, cold, wet, or windy it might be!

Date:

Astronomy

Feb. 08, 2014 Rise Set
Actual Time 6:59 AM CST 5:15 PM CST
Civil Twilight 6:30 AM CST 5:44 PM CST
Nautical Twilight 5:56 AM CST 6:18 PM CST
Astronomical Twilight 5:23 AM CST 6:51 PM CST
Moon 12:06 PM CST (2/8) 2:14 AM CST (2/8)
Length of Visible Light 11h 14m
Length of Day
10h 15m
Waxing Gibbous, 69% of the Moon is Illuminated
Feb 8
Waxing Gibbous
Feb 14
Full
Feb 22
Last Quarter
Mar 1
New
Mar 8
First Quarter

Hourly Weather History & Observations

Time (CST) Temp. Windchill Dew Point Humidity Pressure Visibility Wind Dir Wind Speed Gust Speed Precip Events Conditions
12:15 AM 3.2 °F -4.2 °F -4.0 °F 72% 30.27 in 10.0 mi WSW 3.5 mph - N/A   Clear
12:35 AM 3.2 °F -9.1 °F -4.0 °F 72% 30.26 in 10.0 mi WSW 6.9 mph - N/A   Clear
12:55 AM 3.2 °F -9.1 °F -4.0 °F 72% 30.25 in 10.0 mi WSW 6.9 mph - N/A   Clear
1:15 AM 3.2 °F -7.8 °F -4.0 °F 72% 30.25 in 10.0 mi WSW 5.8 mph - N/A   Clear
1:35 AM 1.4 °F -6.2 °F -4.0 °F 78% 30.26 in 10.0 mi SW 3.5 mph - N/A   Clear
1:55 AM 1.4 °F -8.3 °F -4.0 °F 78% 30.26 in 10.0 mi SW 4.6 mph - N/A   Clear
2:15 AM 1.4 °F -11.3 °F -4.0 °F 78% 30.25 in 10.0 mi SW 6.9 mph - N/A   Clear
2:35 AM 1.4 °F -8.3 °F -4.0 °F 78% 30.25 in 10.0 mi SW 4.6 mph - N/A   Clear
2:55 AM 1.4 °F -6.2 °F -4.0 °F 78% 30.25 in 10.0 mi SW 3.5 mph - N/A   Clear
3:15 AM 1.4 °F - -4.0 °F 78% 30.25 in 10.0 mi Calm Calm - N/A   Clear
3:35 AM 3.2 °F -6.2 °F -4.0 °F 72% 30.25 in 10.0 mi WSW 4.6 mph - N/A   Clear
3:55 AM 3.2 °F -4.2 °F -4.0 °F 72% 30.25 in 10.0 mi SW 3.5 mph - N/A   Clear
4:15 AM -0.4 °F - -5.8 °F 78% 30.25 in 10.0 mi Calm Calm - N/A   Clear
4:35 AM -0.4 °F - -4.0 °F 85% 30.24 in 10.0 mi Calm Calm - N/A   Clear
5:45 AM -0.4 °F - -5.8 °F 78% 30.23 in 10.0 mi Calm Calm - N/A   Mostly Cloudy
6:45 AM -0.4 °F - -4.0 °F 85% 30.23 in 10.0 mi Calm Calm - N/A   Mostly Cloudy
7:45 AM 1.4 °F - -2.2 °F 85% 30.24 in 10.0 mi Calm Calm - N/A   Mostly Cloudy
8:45 AM 6.8 °F - 1.4 °F 79% 30.21 in 10.0 mi Calm Calm - N/A   Mostly Cloudy
9:45 AM 8.6 °F - 3.2 °F 79% 30.22 in 7.0 mi Calm Calm - N/A Snow Light Snow
10:45 AM 8.6 °F -1.3 °F 3.2 °F 79% 30.20 in 2.0 mi SSE 5.8 mph - N/A Snow Light Snow
11:10 AM 8.6 °F - 3.2 °F 79% 30.20 in 7.0 mi Calm Calm - N/A   Overcast
11:45 AM 8.6 °F -1.3 °F 5.0 °F 85% 30.19 in 2.0 mi South 5.8 mph - N/A Snow Light Snow
12:45 PM 12.2 °F 4.3 °F 6.8 °F 79% 30.16 in 2.0 mi South 4.6 mph - N/A Snow Light Snow
1:30 PM 10.4 °F 4.0 °F 6.8 °F 85% 30.14 in 1.2 mi South 3.5 mph - N/A Snow Light Snow
1:45 PM 10.4 °F 4.0 °F 6.8 °F 85% 30.14 in 0.8 mi South 3.5 mph - N/A Snow Light Snow
2:45 PM 12.2 °F - 6.8 °F 79% 30.12 in 1.2 mi Calm Calm - N/A Snow Light Snow
3:00 PM 12.2 °F - 6.8 °F 79% 30.12 in 2.5 mi Calm Calm - N/A Snow Light Snow
3:45 PM 12.2 °F - 8.6 °F 85% 30.12 in 3.0 mi Calm Calm - N/A Snow Light Snow
4:45 PM 12.2 °F - 8.6 °F 85% 30.13 in 3.0 mi Calm Calm - N/A Snow Light Snow
5:45 PM 12.2 °F - 8.6 °F 85% 30.13 in 3.0 mi Calm Calm - N/A Snow Light Snow
8:15 PM 10.4 °F - 8.6 °F 92% 30.12 in 1.5 mi Calm Calm - N/A Snow Light Snow
8:35 PM 10.4 °F - 8.6 °F 92% 30.12 in 1.5 mi Calm Calm - N/A Snow Light Snow
8:45 PM 8.6 °F - 6.8 °F 92% 30.12 in 4.0 mi Calm Calm - N/A Snow Light Snow
8:55 PM 10.4 °F - 8.6 °F 92% 30.12 in 4.0 mi Calm Calm - N/A Snow Light Snow
9:15 PM 10.4 °F - 8.6 °F 92% 30.12 in 5.0 mi Calm Calm - N/A Snow Light Snow
9:35 PM 10.4 °F - 8.6 °F 92% 30.12 in 7.0 mi Calm Calm - N/A Snow Light Snow
9:55 PM 8.6 °F - 6.8 °F 92% 30.12 in 7.0 mi Calm Calm - N/A   Scattered Clouds
10:15 PM 6.8 °F - 5.0 °F 92% 30.12 in 7.0 mi Calm Calm - N/A   Mostly Cloudy
10:35 PM 8.6 °F - 5.0 °F 85% 30.12 in 4.0 mi Calm Calm - N/A   Scattered Clouds
10:55 PM 8.6 °F - 5.0 °F 85% 30.11 in 7.0 mi Calm Calm - N/A   Scattered Clouds
11:15 PM 6.8 °F - 5.0 °F 92% 30.11 in 10.0 mi Calm Calm - N/A   Mostly Cloudy
11:35 PM 8.6 °F - 6.8 °F 92% 30.11 in 10.0 mi Calm Calm - N/A   Overcast
11:55 PM 8.6 °F - 6.8 °F 92% 30.10 in 5.0 mi Calm Calm - N/A Snow Light Snow